Location: Del Amo
(33.8464°N, 118.2104°W)
Time: 18:13:13
(UTC+00:00)

Vanguard 1 Rocket - Pass Details

Date: 13 September 2024
Orbit: 650 x 4218 km, 34.3° (Epoch: 04 October)

Event Time Altitude Azimuth Distance (km) Brightness Sun altitude
Rises 14:52:24 0° 275° (W) 6,827 11.2 15.2°
Reaches altitude 10° 14:56:16 10° 275° (W) 6,167 11.1 16.0°
Maximum altitude 15:19:01 89° 190° (S) 4,184 11.1 20.6°
Drops below altitude 10° 15:44:33 10° 103° (ESE) 6,769 13.7 25.8°
Sets 15:49:03 0° 103° (ESE) 7,478 13.4 26.7°
